Location: Izdebno
(52.6670°N, 16.2170°E)
Time: 07:39:34
(UTC+02:00)

Vanguard 1 - Pass Details

Date: 29 February 2024
Orbit: 653 x 3825 km, 34.2° (Epoch: 22 April)

Event Time Altitude Azimuth Distance (km) Brightness Sun altitude
Rises 21:44:57 0° 257° (WSW) 5,833 14.4 -36.4°
Reaches altitude 10° 21:48:33 10° 250° (WSW) 5,202 14.0 -36.7°
Maximum altitude 22:03:27 41° 188° (S) 4,345 12.9 -38.3°
Enters shadow 22:03:28 41° 188° (S) 4,346 12.9 -38.3°
